Regional Weather Roundup
Issued by NWS

Home | Current Version | Previous Version | Text Only | Print | Product List | Glossary On
Versions: 1 2 3 4 5 6 7 8 9 10 11 12 13 14 15 16 17 18 19 20 21 22 23 24 25 26 27 28 29 30 31 32 33 34 35 36 37 38 39 40 41 42 43 44 45 46 47 48 49 50
000
ASUS43 KTOP 210608
RWRKS

WEATHER ROUNDUP FOR KANSAS
NATIONAL WEATHER SERVICE GOODLAND KS
1200 AM CST WED FEB 21 2018

NOTE:  "FAIR" INDICATES FEW OR NO CLOUDS BELOW 12,000 FEET WITH NO
SIGNIFICANT WEATHER AND/OR OBSTRUCTIONS TO VISIBILITY.

KSZ001>006-013>018-027>032-041>047-210700-
NORTHWEST KANSAS

CITY           SKY/WX    TMP DP  RH WIND       PRES   REMARKS
GOODLAND       CLEAR      4  -2  76 W8        30.32R
6HR MIN TEMP:   4; 6HR MAX TEMP:  14;

HAYS           CLOUDY    15   5  64 N16       30.41S WCI  -1
HILL CITY      CLOUDY    12   3  67 N8        30.43R
6HR MIN TEMP:  11; 6HR MAX TEMP:  22;

RUSSELL        CLOUDY    15   7  70 N12       30.40R WCI   2
6HR MIN TEMP:  14; 6HR MAX TEMP:  26;

$$

KSZ061>065-074>080-084>089-210700-
SOUTHWEST KANSAS

CITY           SKY/WX    TMP DP  RH WIND       PRES   REMARKS
DODGE CITY     CLOUDY    16   1  51 N9        30.37R
6HR MIN TEMP:  16; 6HR MAX TEMP:  27;

ELKHART        CLEAR     20   3  48 NE12      30.32R WCI   8
GARDEN CITY    CLOUDY    12  -1  56 N10       30.36R WCI  -1
6HR MIN TEMP:  11; 6HR MAX TEMP:  24;

GREAT BEND     CLOUDY    14   6  70 N14       30.42R WCI  -1
LIBERAL        CLOUDY    20   1  43 N17       30.36R WCI   5
PRATT          CLOUDY    17   6  62 N10       30.39R WCI   5
6HR MIN TEMP:  17; 6HR MAX TEMP:  26;

$$

KSZ066>073-081>083-090>101-210700-
SOUTHEAST KANSAS

CITY           SKY/WX    TMP DP  RH WIND       PRES   REMARKS
COFFEYVILLE    CLOUDY    25  21  85 N13G23    30.34R WCI  14
6HR MIN TEMP:  25; 6HR MAX TEMP:  28; 6HR PCP: TRACE;

HUTCHINSON     CLOUDY    17  10  74 N10       30.38R WCI   5
6HR MIN TEMP:  17; 6HR MAX TEMP:  26;

MEDICINE LODGE   N/A     21  11  65 N14G22    30.38R WCI   8
NEWTON         CLOUDY    16  11  80 N18       30.35R WCI   0
PARSONS        CLOUDY    24  20  84 N10G20    30.35R WCI  14
6HR MIN TEMP:  24; 6HR MAX TEMP:  28;

WICHITA INTL   CLOUDY    21  14  74 N12       30.37R WCI   9
6HR MIN TEMP:  21; 6HR MAX TEMP:  25;

WICHITA JABRA  CLOUDY    18  14  84 N10G22    30.37R WCI   6
6HR MIN TEMP:  18; 6HR MAX TEMP:  22;

WICHITA MCCONL CLOUDY    19  13  76 N16       30.36R WCI   5
WINFIELD       CLOUDY    21  18  88 N13G22    30.36R WCI   9
6HR MIN TEMP:  21; 6HR MAX TEMP:  24;

$$

KSZ007>012-019>026-033>040-048>060-102>105-210700-
NORTHEAST KANSAS

CITY           SKY/WX    TMP DP  RH WIND       PRES   REMARKS
CONCORDIA      CLOUDY    13   6  74 N13       30.44R WCI  -2
6HR MIN TEMP:  13; 6HR MAX TEMP:  22;

EMPORIA        PTCLDY    18  13  80 N14       30.38R WCI   4
6HR MIN TEMP:  18; 6HR MAX TEMP:  23;

LAWRENCE       PTCLDY    20  13  74 NW14G23   30.41R WCI   7
6HR MIN TEMP:  20; 6HR MAX TEMP:  24;

MANHATTAN      CLEAR     19  10  68 N7        30.43R
6HR MIN TEMP:  19; 6HR MAX TEMP:  25;

MARYSVILLE     CLOUDY    16  10  79 N12       30.43R WCI   3
OLATHE IND     PTCLDY    19  15  84 N15       30.39R WCI   5
6HR MIN TEMP:  19; 6HR MAX TEMP:  22;

OLATHE EXE     CLOUDY    19  15  84 N10       30.37R WCI   7
6HR MIN TEMP:  19; 6HR MAX TEMP:  22;

SALINA         CLOUDY    17   9  70 N14       30.42R WCI   3
6HR MIN TEMP:  17; 6HR MAX TEMP:  26;

TOPEKA BILLARD PTCLDY    19  14  81 N12G17    30.42R WCI   7
6HR MIN TEMP:  19; 6HR MAX TEMP:  24;

TOPEKA FORBES  PTCLDY    19  14  81 N7        30.40R
6HR MIN TEMP:  19; 6HR MAX TEMP:  25;

$$




USA.gov is the U.S. government's official web portal to all federal, state and local government web resources and services.